| time (UTC) | temp C | wind direction | speed KPH | gust KPH | rain 1hr cm | rain 24hr cm | rain mn cm | humidity % | barometer mb |
| 20260503220834 | 24 | 222 | 3.2 | 49.9 | 0.00 | 0.00 | 0.00 | 42 | 884.9 |
| 20260503215858 | 24 | 36 | 6.4 | 206.0 | 0.00 | 0.00 | 0.00 | 40 | 884.9 |
| 20260503214850 | 24 | 50 | 6.4 | 45.1 | 0.00 | 0.00 | 0.00 | 39 | 884.9 |
| 20260503213914 | 25 | 342 | 8.0 | 91.7 | 0.00 | 0.00 | 0.00 | 37 | 884.9 |
| 20260503212921 | 24 | 300 | 14.5 | 80.5 | 0.00 | 0.00 | 0.00 | 40 | 884.9 |
| 20260503211913 | 24 | 92 | 11.3 | 86.9 | 0.00 | 0.00 | 0.00 | 41 | 884.9 |
| 20260503210908 | 23 | 44 | 6.4 | 54.7 | 0.00 | 0.00 | 0.00 | 42 | 884.9 |
| 20260503204825 | 23 | 355 | 11.3 | 72.4 | 0.00 | 0.00 | 0.00 | 40 | 1012.8 |
| 20260503203810 | 23 | 300 | 4.8 | 20.9 | 0.00 | 0.00 | 0.00 | 42 | 1012.8 |
| 20260503202814 | 23 | 58 | 9.7 | 45.1 | 0.00 | 0.00 | 0.00 | 47 | 1012.8 |
| 20260503201815 | 23 | 267 | 3.2 | 32.2 | 0.00 | 0.00 | 0.00 | 48 | 1012.8 |
| 20260503200810 | 22 | 304 | 11.3 | 51.5 | 0.00 | 0.00 | 0.00 | 48 | 1012.8 |
| 20260503195750 | 22 | 48 | 11.3 | 80.5 | 0.00 | 0.00 | 0.00 | 50 | 1012.8 |
| 20260503194757 | 22 | 290 | 17.7 | 66.0 | 0.00 | 0.00 | 0.00 | 48 | 1012.8 |
| 20260503193730 | 22 | 41 | 11.3 | 70.8 | 0.00 | 0.00 | 0.00 | 50 | 1012.8 |
| 20260503192707 | 21 | 0 | 0.0 | 45.1 | 0.00 | 0.00 | 0.00 | 53 | 1012.8 |
| 20260503191653 | 21 | 294 | 0.0 | 14.5 | 0.00 | 0.00 | 0.00 | 54 | 1012.8 |
| 20260503190653 | 21 | 333 | 0.0 | 0.0 | 0.00 | 0.00 | 0.00 | 57 | 1012.8 |
| 20260503185620 | 21 | 278 | 4.8 | 177.0 | 0.00 | 0.00 | 0.00 | 52 | 1012.8 |
| 20260503184551 | 21 | 246 | 1.6 | 24.1 | 0.00 | 0.00 | 0.00 | 54 | 1012.8 |
| 20260503183601 | 21 | 225 | 6.4 | 38.6 | 0.00 | 0.00 | 0.00 | 56 | 1012.8 |
| 20260503181419 | 20 | 329 | 3.2 | 49.9 | 0.00 | 0.00 | 0.00 | 56 | 1012.8 |
| 20260503180430 | 20 | 313 | 0.0 | 1.6 | 0.00 | 0.00 | 0.00 | 60 | 1012.8 |
| 20260503174303 | 18 | 290 | 0.0 | 29.0 | 0.00 | 0.00 | 0.00 | 64 | 1012.8 |
| 20260503172058 | 18 | 325 | 0.0 | 41.8 | 0.00 | 0.00 | 0.00 | 64 | 1012.8 |
| 20260503171028 | 17 | 330 | 0.0 | 4.8 | 0.00 | 0.00 | 0.00 | 67 | 1012.8 |
| 20260503150518 | 15 | 28 | 1.6 | 0.0 | 0.00 | 0.00 | 0.00 | 77 | 1013.0 |
| 20260503131230 | 10 | 47 | 0.0 | 0.0 | 0.00 | 0.00 | 0.00 | 87 | 1012.6 |
| 20260503130158 | 10 | 47 | 0.0 | 0.0 | 0.00 | 0.00 | 0.00 | 87 | 1012.6 |
| 20260503120145 | 10 | 47 | 0.0 | 0.0 | 0.00 | 0.00 | 0.00 | 87 | 1012.7 |
| 20260503110109 | 10 | 47 | 0.0 | 0.0 | 0.00 | 0.00 | 0.00 | 86 | 1012.8 |
| 20260503080707 | 11 | 47 | 0.0 | 0.0 | 0.00 | 0.00 | 0.00 | 81 | 1013.0 |
| 20260503072622 | 11 | 47 | 0.0 | 0.0 | 0.00 | 0.00 | 0.00 | 80 | 1012.7 |
| 20260503070410 | 11 | 47 | 0.0 | 0.0 | 0.00 | 0.00 | 0.00 | 80 | 1012.6 |
| 20260503060138 | 12 | 47 | 0.0 | 0.0 | 0.00 | 0.00 | 0.00 | 77 | 1012.6 |
| 20260503054123 | 13 | 47 | 0.0 | 0.0 | 0.00 | 0.00 | 0.00 | 77 | 1012.5 |
| 20260503053135 | 13 | 47 | 0.0 | 0.0 | 0.00 | 0.00 | 0.00 | 76 | 1012.0 |
| 20260503052126 | 13 | 47 | 0.0 | 0.0 | 0.00 | 0.00 | 0.00 | 76 | 1012.4 |
| 20260503051107 | 12 | 47 | 0.0 | 0.0 | 0.00 | 0.00 | 0.00 | 79 | 1012.5 |
| 20260503050129 | 13 | 47 | 0.0 | 0.0 | 0.00 | 0.00 | 0.00 | 78 | 1012.5 |
| 20260503042825 | 15 | 47 | 0.0 | 0.0 | 0.00 | 0.00 | 0.00 | 69 | 1004.3 |
| 20260503040705 | 15 | 47 | 0.0 | 0.0 | 0.00 | 0.00 | 0.00 | 70 | 1011.4 |
| 20260503035720 | 15 | 47 | 0.0 | 0.0 | 0.00 | 0.00 | 0.00 | 68 | 1010.0 |
| 20260503032446 | 17 | 47 | 0.0 | 0.0 | 0.00 | 0.00 | 0.00 | 62 | 990.4 |
| 20260503031428 | 17 | 47 | 0.0 | 0.0 | 0.00 | 0.00 | 0.00 | 60 | 955.5 |
| 20260503030415 | 17 | 47 | 0.0 | 16.1 | 0.00 | 0.00 | 0.00 | 58 | 955.5 |
| 20260503025422 | 18 | 47 | 1.6 | 0.0 | 0.00 | 0.00 | 0.00 | 56 | 955.5 |
| 20260503023242 | 19 | 47 | 0.0 | 19.3 | 0.00 | 0.00 | 0.00 | 55 | 908.8 |
| 20260503022230 | 19 | 47 | 0.0 | 4.8 | 0.00 | 0.00 | 0.00 | 54 | 908.8 |
| 20260503021241 | 20 | 47 | 0.0 | 3.2 | 0.00 | 0.00 | 0.00 | 56 | 908.8 |
| 20260503020222 | 20 | 47 | 0.0 | 0.0 | 0.00 | 0.00 | 0.00 | 54 | 908.8 |
| 20260503012835 | 21 | 14 | 3.2 | 14.5 | 0.00 | 0.00 | 0.00 | 49 | 908.8 |
| 20260503011849 | 21 | 321 | 1.6 | 40.2 | 0.00 | 0.00 | 0.00 | 47 | 908.8 |
| 20260503005737 | 22 | 346 | 4.8 | 38.6 | 0.00 | 0.00 | 0.00 | 48 | 908.8 |
| 20260503004728 | 22 | 349 | 3.2 | 117.5 | 0.00 | 0.00 | 0.00 | 46 | 908.8 |
| 20260503003746 | 22 | 32 | 0.0 | 14.5 | 0.00 | 0.00 | 0.00 | 46 | 908.8 |
| 20260503002726 | 22 | 33 | 1.6 | 40.2 | 0.00 | 0.00 | 0.00 | 49 | 908.8 |
| 20260503001653 | 22 | 42 | 3.2 | 212.4 | 0.00 | 0.00 | 0.00 | 48 | 908.8 |
| 20260502232601 | 22 | 309 | 9.7 | 88.5 | 0.00 | 0.00 | 0.00 | 50 | 913.2 |
| 20260502230500 | 21 | 302 | 19.3 | 120.7 | 0.00 | 0.00 | 0.00 | 51 | 913.2 |
| 20260502225449 | 21 | 60 | 22.5 | 120.7 | 0.00 | 0.00 | 0.00 | 55 | 913.2 |